This demonstration page uses our WeatherBlox Daily Observations layout. Learn more.

Left ArrowRight Arrow

Hourly Observations for January 4, 2018

Temp ( °F °C ) Dew Point ( °F °C ) Humidity (%) Winds ( mph kmh ) Pressure ( in mb ) Visibility ( mi km ) Precip ( " mm )
12:53 am 00:53 Clear 13 -10.6 10 -12.2 88 88 Calm 30.38 1029 8 13 0.00 0.00
1:53 am 01:53 Clear 10 -12.2 6 -14.4 84 84 Calm 30.37 1029 9 14 0.00 0.00
2:53 am 02:53 Clear with Mist and Fog 11 -11.7 9 -12.8 92 92 S 3 6 30.38 1029 6 10 0.00 0.00
3:53 am 03:53 Clear 10 -12.2 8 -13.3 92 92 S 3 6 30.38 1029 7 11 0.00 0.00
4:53 am 04:53 Clear 9 -12.8 6 -14.4 88 88 SSE 3 6 30.37 1029 8 13 0.00 0.00
5:53 am 05:53 Clear 10 -12.2 8 -13.3 92 92 SSE 5 7 30.37 1028 7 11 0.00 0.00
6:53 am 06:53 Clear 9 -12.8 6 -14.4 88 88 S 6 9 30.37 1029 7 11 0.00 0.00
7:53 am 07:53 Clear 9 -12.8 6 -14.4 88 88 S 7 11 30.37 1028 8 13 0.00 0.00
8:53 am 08:53 Sunny 10 -12.2 7 -13.9 87 87 S 7 11 30.37 1029 7 11 0.00 0.00
9:53 am 09:53 Sunny 13 -10.6 10 -12.2 88 88 S 7 11 30.37 1028 9 14 0.00 0.00
10:53 am 10:53 Sunny 18 -7.8 13 -10.6 81 81 SSW 10 17 30.35 1028 10 16 0.00 0.00
11:53 am 11:53 Sunny 25 -3.9 17 -8.3 72 72 SSW 9 15 30.30 1026 10 16 0.00 0.00
12:53 pm 12:53 Sunny 29 -1.7 19 -7.2 66 66 SW 10 17 30.27 1025 10 16 0.00 0.00
1:53 pm 13:53 Sunny 32 0 22 -5.6 66 66 SW 8 13 30.24 1024 10 16 0.00 0.00
2:53 pm 14:53 Sunny 36 2.2 24 -4.4 62 62 SW 9 15 30.22 1023 10 16 0.00 0.00
3:53 pm 15:53 Sunny 36 2.2 26 -3.3 67 67 WSW 8 13 30.22 1024 10 16 0.00 0.00
4:53 pm 16:53 Sunny 34 1.1 25 -3.9 70 70 W 6 9 30.23 1024 10 16 0.00 0.00
5:53 pm 17:53 Clear 30 -1.1 23 -5 75 75 WSW 3 6 30.24 1024 10 16 0.00 0.00
6:53 pm 18:53 Clear 24 -4.4 20 -6.7 84 84 WNW 5 7 30.26 1025 10 16 0.00 0.00
7:53 pm 19:53 Clear 20 -6.7 16 -8.9 85 85 WNW 7 11 30.28 1025 10 16 0.00 0.00
8:53 pm 20:53 Clear 19 -7.2 15 -9.4 84 84 NW 3 6 30.28 1025 10 16 0.00 0.00
9:53 pm 21:53 Clear 20 -6.7 17 -8.3 89 89 N 8 13 30.29 1026 10 16 0.00 0.00
10:53 pm 22:53 Clear 18 -7.8 15 -9.4 88 88 NNE 3 6 30.30 1026 10 16 0.00 0.00
11:53 pm 23:53 Clear 17 -8.3 14 -10 88 88 N 5 7 30.30 1026 8 13 0.00 0.00

Powered by AerisWeather